Volver al catálogo

SL-16 DEB

ActivoLEO
NORAD 18417·DEBRIS·🇷🇺 Russia

Lanzado Mar 18, 1987 desde Baikonur Cosmodrome

Loading…

Próximos Pases (próximas 24 horas)

TLE

ActualizadoSource: Space-Track

Época: Sep 14, 2026, 10:26 UTC

1 18417U 87027D   26257.43517751  .00000040  00000-0  74644-4 0  9993
2 18417  70.9994 167.8031 0200224 151.0616 328.8231 13.74671688979785

Sigue SL-16 DEB en tiempo real con AllMySat

Download on the App Store